Regional Weather Roundup
Issued by NWS Burlington, VT

Current Version | Previous Version | Text Only | Print | Product List | Glossary On
Versions: 1 2 3 4 5 6 7 8 9 10 11 12 13 14 15 16 17 18 19 20 21 22 23 24 25 26 27 28 29 30 31 32 33 34 35 36 37 38 39 40 41 42 43 44 45 46 47 48 49 50
000 ASUS41 KBTV 280810 RWRBTV VERMONT REGIONAL WEATHER ROUNDUP NATIONAL WEATHER SERVICE BURLINGTON VT 400 AM EDT MON JUL 28 2014 NOTE: "FAIR" INDICATES FEW OR NO CLOUDS BELOW 12,000 FEET WITH NO SIGNIFICANT WEATHER AND/OR OBSTRUCTIONS TO VISIBILITY. * THESE REPORTS ARE NOT UNDER NWS QUALITY CONTROL AND/OR DO NOT REPORT WEATHER SUCH AS PRECIPITATION AND FOG. VTZ001>019-280900- _____VERMONT_____ CITY SKY/WX TMP DP RH WIND PRES REMARKS BURLINGTON PTSUNNY 63 61 93 CALM 29.63S MONTPELIER FOG 60 60 100 CALM 29.69F VSB 1/2 MORRISVILLE FOG 62 61 96 CALM 29.66F VSB 1/4 ST. JOHNSBURY* N/A 60 60 100 MISG 29.64S LYNDONVILLE* N/A N/A N/A N/A MISG N/A MIDDLEBURY* FAIR 62 62 100 N5 29.62S RUTLAND* CLOUDY 63 61 94 E6 29.62F SPRINGFIELD FOG 64 64 100 CALM 29.63F VSB 1/4 HIGHGATE* CLOUDY 64 63 95 CALM 29.63R NEWPORT* CLOUDY N/A N/A N/A CALM 29.66S FOG BENNINGTON CLOUDY 66 64 93 CALM 29.60F _____LAKE CHAMPLAIN_____ CITY SKY/WX TMP DP RH WIND PRES REMARKS COLCHESTER RF* N/A 68 66 94 NE3 N/A DIAMOND ISL* N/A 66 64 94 NE2 N/A $$ NYZ007-026>031-035-052-083-280900- _____NORTHERN NEW YORK_____ CITY SKY/WX TMP DP RH WIND PRES REMARKS PLATTSBURGH FOG 60 59 96 CALM 29.61F VSB 3/4 SARANAC LAKE PTSUNNY 51 51 100 CALM 29.63F FOG MASSENA SUNNY 62 61 96 N8 29.62F OGDENSBURG* MOSUNNY 63 61 94 NE6 29.61S POTSDAM* FOG 63 63 100 E3 29.62S VSB 1/2 WATERTOWN CLOUDY 65 59 81 E3 29.62R FT DRUM CLOUDY 63 63 100 SE8 29.63R ALBANY TSTM 70 66 87 NW5 29.57F GLENS FALLS CLOUDY 66 62 87 N8 29.57F $$ NHZ002-005-011-280900- _____NEW HAMPSHIRE_____ CITY SKY/WX TMP DP RH WIND PRES REMARKS LEBANON FOG 65 63 93 N3 29.63F VSB 1/4 KEENE CLOUDY 66 57 72 CALM 29.63F MT WASHINGTON MOSUNNY 50 43 76 W30 N/A PLYMOUTH FOG 66 65 96 CALM 29.64F VSB 3/4 WHITEFIELD CLOUDY 58 56 93 CALM 29.66S $$ _____REGIONAL QUEBEC LOCATIONS_____ CITY SKY/WX TMP DP RH WIND PRES REMARKS MONTREAL PTSUNNY 63 59 88 NE7 29.64S QUEBEC CITY PTSUNNY 59 59 100 N6 29.64R SHERBROOKE CLOUDY 61 61 100 VRB2 29.65S _____REGIONAL ONTARIO LOCATIONS_____ CITY SKY/WX TMP DP RH WIND PRES REMARKS OTTAWA PTSUNNY 63 59 88 N12 29.66R ______KEY______ VSB - VISIBILITY IN MILES WCI - WIND CHILL INDEX HX - HEAT INDEX $$ NNNN

USA.gov is the U.S. government's official web portal to all federal, state and local government web resources and services.